Tracking 30510 objects as of 22-May-2025
HD Live streaming from Space Station
objects crossing your sky now

RUZAEVKA-390

Track RUZAEVKA-390 now!
10-day predictions


NORAD ID: 61766
Int'l Code: 2024-199AH
Perigee: 449.0 km
Apogee: 461.0 km
Inclination: 97.4 °
Period: 93.5 minutes
Semi major axis: 6825 km
RCS: Unknown
Launch date: November 4, 2024
Source: Commonwealth of Independent States (former USSR) (CIS)
Launch site: VOSTOCHNY COSMODROME (VOSTO)
Your satellite tracking list
Your tracking list is empty




NASA's NSSDC Master Catalog

Two Line Element Set (TLE):
1 61766U 24199AH  25142.59018545  .00025392  00000-0  64888-3 0  9990
2 61766  97.3571  12.3688 0008744 228.9160 131.1331 15.39407834 74254
Source of the keplerian elements: AFSPC